Home   Weather   Jastrzębie Zdrój   Past weeks

Flag for Poland Past Weather in Jastrzębie Zdrój, Poland — Yesterday and Last 2 Weeks

Now
49 °F

Fog.


Feels Like: N/A
Forecast: 47 / 69 °F
Wind: N/A

Location: Ostrava / Mosnov

Current Time: Sep 27, 2016 at 10:43:54 AM

Latest Report: Sep 27, 2016 at 10:00 AM


Visibility: 0 mi

Pressure: 30.32 "Hg

Humidity: 99%

Dew Point: 49 °F

Location of Jastrzębie ZdrójLocation

Past Weather in Jastrzębie Zdrój — Graph

°F

Jastrzębie Zdrój Temperature Yesterday

Maximum temperature yesterday: 67 °F (at 3:00 PM)
Minimum temperature yesterday: 40 °F (at 6:00 AM)
Average temperature yesterday: 51 °F

High & Low Weather Summary for the Past Weeks

 TemperatureHumidityPressure
High84 °F (Sep 12, 3:00 PM)100% (Sep 25, 6:00 AM)30.33 "Hg (Sep 25, 6:00 AM)
Low38 °F (Sep 23, 7:00 AM)43% (Sep 12, 3:00 PM)29.81 "Hg (Sep 17, 10:00 AM)
Average59 °F80%30.08 "Hg
* Reported Sep 12 9:00 AM — Sep 27 9:00 AM, Jastrzębie Zdrój, Weather by CustomWeather, © 2016

Note: Actual official high and low records may vary slightly from our data, if they occured in-between our weather recording intervals... More about our weather records

Advertising

Jastrzębie Zdrój Weather History for the Previous 24 Hours

Scroll right to see more
 ConditionsComfort  
Time TempWeatherWind HumidityBarometerVisibility
9:00 AM
Tue, Sep 27
47 °FFog.N/A100%30.30 "Hg0 mi
8:00 AM46 °FFog.2 mph99%30.29 "Hg0 mi
7:00 AM46 °FFog.2 mph98%30.29 "Hg0 mi
6:00 AM46 °FFog.N/A98%30.27 "Hg0 mi
5:00 AM47 °FFog.2 mph98%30.27 "Hg0 mi
4:00 AM48 °FFog.N/A98%30.26 "Hg0 mi
3:00 AM47 °FFog.N/A97%30.27 "Hg3 mi
2:00 AM45 °FFog.N/A97%30.27 "Hg2 mi
1:00 AM47 °FFog.1 mph97%30.26 "Hg3 mi
12:00 AM47 °FFog.N/A96%30.25 "Hg3 mi
11:00 PM
Mon, Sep 26
48 °FFog.2 mph94%30.25 "Hg3 mi
10:00 PM50 °FFog.1 mph95%30.26 "Hg5 mi
9:00 PM52 °FFog.N/A94%30.24 "Hg6 mi
8:00 PM56 °FClear.1 mph79%30.22 "Hg9 mi
7:00 PM59 °FClear.2 mph73%30.21 "Hg9 mi
6:00 PM62 °FScattered clouds.2 mph65%30.19 "Hg12 mi
4:00 PM66 °FScattered clouds.N/A54%30.18 "Hg16 mi
3:00 PM67 °FScattered clouds.N/A53%30.18 "Hg16 mi
2:00 PM65 °FPassing clouds.N/A58%30.19 "Hg16 mi
1:00 PM62 °FPassing clouds.N/A60%30.20 "Hg12 mi
12:00 PM58 °FFog.N/A67%30.21 "Hg6 mi
11:00 AM53 °FFog.N/A85%30.23 "Hg2 mi
10:00 AM47 °FFog.N/A97%30.25 "Hg1 mi
Weather by CustomWeather, © 2016

See weather overviewHow to use our weather pages